contact:dominique.lefevre@mio.osupytheas.fr, maurice.libes@osupytheas.fr, didier.mallarino@osupytheas.fr
Project:EMSO http://www.emso-fr.org/EMSO-France
Depth: 2436.0 m
Title:EMSO Ligure Ouest : Data MII capteur CSTAR
DateTime,Latitude,Longitude,Instrument_Serial,Reference_Counts,Signal_Counts,Corrected_Signal_raw_counts,Calculated_Beam_c_inverse_meters,Internal_thermistor_counts
DateTime,Latitude,Longitude,Instrument_Serial,Reference_Counts,Signal_Counts,Corrected_Signal_raw_counts,Calculated_Beam_c_inverse_meters,Internal_thermistor_counts
2022-08-26T00:00:00,42.805,6.029,CST-1368DR,4599,5181,11995,01.055,551
2022-08-26T00:03:02,42.805,6.029,CST-1368DR,4600,5180,11989,01.057,551
2022-08-26T00:06:03,42.805,6.029,CST-1368DR,4599,5181,11994,01.056,551
2022-08-26T00:09:05,42.805,6.029,CST-1368DR,4599,5180,11991,01.057,551
2022-08-26T00:12:06,42.805,6.029,CST-1368DR,4599,5178,11988,01.058,551
2022-08-26T00:15:08,42.805,6.029,CST-1368DR,4599,5178,11986,01.058,551
2022-08-26T00:18:10,42.805,6.029,CST-1368DR,4599,5179,11990,01.057,551
2022-08-26T00:21:11,42.805,6.029,CST-1368DR,4599,5179,11990,01.057,551
2022-08-26T00:24:13,42.805,6.029,CST-1368DR,4599,5178,11988,01.058,551
2022-08-26T00:27:14,42.805,6.029,CST-1368DR,4599,5180,11991,01.057,551
2022-08-26T00:30:16,42.805,6.029,CST-1368DR,4599,5180,11991,01.057,551
2022-08-26T00:33:17,42.805,6.029,CST-1368DR,4599,5179,11989,01.057,551
2022-08-26T00:36:19,42.805,6.029,CST-1368DR,4599,5179,11990,01.057,551
2022-08-26T00:39:21,42.805,6.029,CST-1368DR,4599,5179,11989,01.057,551
2022-08-26T00:42:22,42.805,6.029,CST-1368DR,4599,5180,11991,01.057,551
2022-08-26T00:45:24,42.805,6.029,CST-1368DR,4599,5179,11989,01.057,551
2022-08-26T00:48:25,42.805,6.029,CST-1368DR,4599,5180,11991,01.057,551
2022-08-26T00:51:27,42.805,6.029,CST-1368DR,4599,5179,11990,01.057,551
2022-08-26T00:54:29,42.805,6.029,CST-1368DR,4599,5180,11992,01.056,551
2022-08-26T00:57:30,42.805,6.029,CST-1368DR,4599,5181,11993,01.056,550
2022-08-26T01:00:32,42.805,6.029,CST-1368DR,4599,5180,11992,01.056,551
2022-08-26T01:03:33,42.805,6.029,CST-1368DR,4599,5178,11988,01.058,551
2022-08-26T01:06:35,42.805,6.029,CST-1368DR,4599,5178,11988,01.058,551
2022-08-26T01:09:36,42.805,6.029,CST-1368DR,4599,5179,11990,01.057,551
2022-08-26T01:12:38,42.805,6.029,CST-1368DR,4599,5183,11999,01.054,550
2022-08-26T01:15:40,42.805,6.029,CST-1368DR,4599,5178,11988,01.058,551
2022-08-26T01:18:41,42.805,6.029,CST-1368DR,4599,5179,11990,01.057,551
2022-08-26T01:21:43,42.805,6.029,CST-1368DR,4599,5178,11988,01.058,551
2022-08-26T01:24:44,42.805,6.029,CST-1368DR,4599,5180,11992,01.056,551
2022-08-26T01:27:46,42.805,6.029,CST-1368DR,4599,5180,11991,01.057,551
2022-08-26T01:30:48,42.805,6.029,CST-1368DR,4599,5176,11983,01.059,550
2022-08-26T01:33:49,42.805,6.029,CST-1368DR,4599,5195,12026,01.045,551
2022-08-26T01:36:51,42.805,6.029,CST-1368DR,4599,5195,12026,01.045,551
2022-08-26T01:39:52,42.805,6.029,CST-1368DR,4599,5194,12024,01.046,551
2022-08-26T01:42:54,42.805,6.029,CST-1368DR,4599,5194,12025,01.045,551
2022-08-26T01:45:55,42.805,6.029,CST-1368DR,4599,5194,12025,01.045,551
2022-08-26T01:48:57,42.805,6.029,CST-1368DR,4600,5195,12023,01.046,551
2022-08-26T01:51:59,42.805,6.029,CST-1368DR,4599,5194,12025,01.045,551
2022-08-26T01:55:00,42.805,6.029,CST-1368DR,4600,5194,12023,01.046,551
2022-08-26T01:58:02,42.805,6.029,CST-1368DR,4599,5193,12022,01.046,551
2022-08-26T02:01:03,42.805,6.029,CST-1368DR,4599,5194,12024,01.046,550
2022-08-26T02:04:05,42.805,6.029,CST-1368DR,4599,5191,12016,01.048,551
2022-08-26T02:07:06,42.805,6.029,CST-1368DR,4599,5192,12021,01.047,551
2022-08-26T02:10:08,42.805,6.029,CST-1368DR,4599,5193,12022,01.046,551
2022-08-26T02:13:10,42.805,6.029,CST-1368DR,4599,5193,12023,01.046,551
2022-08-26T02:16:11,42.805,6.029,CST-1368DR,4599,5192,12019,01.047,551
2022-08-26T02:19:13,42.805,6.029,CST-1368DR,4599,5189,12013,01.049,551
2022-08-26T02:22:14,42.805,6.029,CST-1368DR,4599,5183,11999,01.054,551
2022-08-26T02:25:16,42.805,6.029,CST-1368DR,4599,5182,11996,01.055,551
2022-08-26T02:28:18,42.805,6.029,CST-1368DR,4599,5182,11996,01.055,551
2022-08-26T02:31:19,42.805,6.029,CST-1368DR,4599,5181,11993,01.056,551
2022-08-26T02:34:21,42.805,6.029,CST-1368DR,4599,5182,11996,01.055,551
2022-08-26T02:37:22,42.805,6.029,CST-1368DR,4599,5182,11996,01.055,551
2022-08-26T02:40:24,42.805,6.029,CST-1368DR,4599,5181,11994,01.056,551
2022-08-26T02:43:25,42.805,6.029,CST-1368DR,4599,5179,11989,01.057,551
2022-08-26T02:46:27,42.805,6.029,CST-1368DR,4599,5180,11992,01.056,551
2022-08-26T02:49:29,42.805,6.029,CST-1368DR,4599,5181,11993,01.056,551
2022-08-26T02:52:30,42.805,6.029,CST-1368DR,4599,5178,11988,01.058,551
2022-08-26T02:55:32,42.805,6.029,CST-1368DR,4599,5178,11986,01.058,551
2022-08-26T02:58:33,42.805,6.029,CST-1368DR,4599,5180,11991,01.057,551
2022-08-26T03:01:35,42.805,6.029,CST-1368DR,4599,5178,11988,01.058,551
2022-08-26T03:04:36,42.805,6.029,CST-1368DR,4599,5179,11990,01.057,551
2022-08-26T03:07:38,42.805,6.029,CST-1368DR,4599,5181,11994,01.056,551
2022-08-26T03:10:40,42.805,6.029,CST-1368DR,4599,5176,11982,01.060,551
2022-08-26T03:13:41,42.805,6.029,CST-1368DR,4599,5180,11992,01.056,551
2022-08-26T03:16:43,42.805,6.029,CST-1368DR,4599,5175,11979,01.061,551
2022-08-26T03:19:44,42.805,6.029,CST-1368DR,4599,5177,11985,01.059,551
2022-08-26T03:22:46,42.805,6.029,CST-1368DR,4599,5180,11992,01.056,551
2022-08-26T03:25:48,42.805,6.029,CST-1368DR,4599,5180,11992,01.056,551
2022-08-26T03:28:49,42.805,6.029,CST-1368DR,4599,5181,11994,01.056,551
2022-08-26T03:31:51,42.805,6.029,CST-1368DR,4598,5181,11996,01.055,551
2022-08-26T03:34:52,42.805,6.029,CST-1368DR,4598,5181,11996,01.055,551
2022-08-26T03:37:54,42.805,6.029,CST-1368DR,4598,5181,11997,01.055,551
2022-08-26T03:40:55,42.805,6.029,CST-1368DR,4598,5180,11993,01.056,551
2022-08-26T03:43:57,42.805,6.029,CST-1368DR,4598,5179,11991,01.057,551
2022-08-26T03:46:59,42.805,6.029,CST-1368DR,4598,5180,11994,01.056,550
2022-08-26T03:50:00,42.805,6.029,CST-1368DR,4598,5177,11988,01.058,551
2022-08-26T03:53:02,42.805,6.029,CST-1368DR,4598,5179,11992,01.056,551
2022-08-26T03:56:03,42.805,6.029,CST-1368DR,4598,5176,11984,01.059,551
2022-08-26T03:59:05,42.805,6.029,CST-1368DR,4598,5179,11992,01.056,551
2022-08-26T04:02:06,42.805,6.029,CST-1368DR,4598,5179,11993,01.056,551
2022-08-26T04:05:08,42.805,6.029,CST-1368DR,4598,5180,11994,01.056,551
2022-08-26T04:08:10,42.805,6.029,CST-1368DR,4598,5182,11998,01.054,551
2022-08-26T04:11:11,42.805,6.029,CST-1368DR,4598,5180,11995,01.055,551
2022-08-26T04:14:13,42.805,6.029,CST-1368DR,4599,5180,11993,01.056,551
2022-08-26T04:17:14,42.805,6.029,CST-1368DR,4599,5180,11993,01.056,551
2022-08-26T04:20:16,42.805,6.029,CST-1368DR,4599,5181,11994,01.056,551
2022-08-26T04:23:18,42.805,6.029,CST-1368DR,4599,5181,11995,01.055,551
2022-08-26T04:26:19,42.805,6.029,CST-1368DR,4599,5181,11993,01.056,551
2022-08-26T04:29:21,42.805,6.029,CST-1368DR,4599,5179,11990,01.057,551
2022-08-26T04:32:22,42.805,6.029,CST-1368DR,4599,5181,11994,01.056,551
2022-08-26T04:35:24,42.805,6.029,CST-1368DR,4599,5181,11994,01.056,551
2022-08-26T04:38:25,42.805,6.029,CST-1368DR,4599,5180,11993,01.056,551
2022-08-26T04:41:27,42.805,6.029,CST-1368DR,4599,5181,11994,01.056,551
2022-08-26T04:44:29,42.805,6.029,CST-1368DR,4599,5180,11991,01.057,551
2022-08-26T04:47:30,42.805,6.029,CST-1368DR,4599,5182,11997,01.055,551
2022-08-26T04:50:32,42.805,6.029,CST-1368DR,4599,5180,11991,01.057,551
2022-08-26T04:53:33,42.805,6.029,CST-1368DR,4599,5180,11991,01.057,551
2022-08-26T04:56:35,42.805,6.029,CST-1368DR,4599,5180,11993,01.056,551
2022-08-26T04:59:37,42.805,6.029,CST-1368DR,4599,5182,11996,01.055,551
2022-08-26T05:02:38,42.805,6.029,CST-1368DR,4599,5182,11996,01.055,551
2022-08-26T05:05:40,42.805,6.029,CST-1368DR,4599,5182,11997,01.055,551
2022-08-26T05:08:41,42.805,6.029,CST-1368DR,4599,5181,11995,01.055,551
2022-08-26T05:11:43,42.805,6.029,CST-1368DR,4599,5183,11999,01.054,551
2022-08-26T05:14:44,42.805,6.029,CST-1368DR,4599,5183,11999,01.054,551
2022-08-26T05:17:46,42.805,6.029,CST-1368DR,4599,5182,11997,01.055,551
2022-08-26T05:20:48,42.805,6.029,CST-1368DR,4599,5182,11996,01.055,551
2022-08-26T05:23:49,42.805,6.029,CST-1368DR,4599,5181,11994,01.056,551
2022-08-26T05:26:51,42.805,6.029,CST-1368DR,4599,5181,11994,01.056,551
2022-08-26T05:29:52,42.805,6.029,CST-1368DR,4599,5177,11985,01.059,551
2022-08-26T05:32:54,42.805,6.029,CST-1368DR,4599,5179,11990,01.057,550
2022-08-26T05:35:55,42.805,6.029,CST-1368DR,4599,5181,11995,01.055,551
2022-08-26T05:38:57,42.805,6.029,CST-1368DR,4599,5182,11996,01.055,551
2022-08-26T05:41:59,42.805,6.029,CST-1368DR,4599,5182,11996,01.055,551
2022-08-26T05:45:00,42.805,6.029,CST-1368DR,4599,5180,11993,01.056,551
2022-08-26T05:48:02,42.805,6.029,CST-1368DR,4599,5182,11996,01.055,551
2022-08-26T05:51:03,42.805,6.029,CST-1368DR,4599,5181,11995,01.055,551
2022-08-26T05:54:05,42.805,6.029,CST-1368DR,4599,5178,11986,01.058,551
2022-08-26T05:57:07,42.805,6.029,CST-1368DR,4599,5181,11995,01.055,551
2022-08-26T06:00:08,42.805,6.029,CST-1368DR,4599,5181,11994,01.056,551
2022-08-26T06:03:10,42.805,6.029,CST-1368DR,4599,5182,11996,01.055,551
2022-08-26T06:06:11,42.805,6.029,CST-1368DR,4599,5182,11996,01.055,551
2022-08-26T06:09:13,42.805,6.029,CST-1368DR,4599,5182,11997,01.055,551
2022-08-26T06:12:14,42.805,6.029,CST-1368DR,4599,5182,11996,01.055,551
2022-08-26T06:15:16,42.805,6.029,CST-1368DR,4599,5182,11997,01.055,551
2022-08-26T06:18:18,42.805,6.029,CST-1368DR,4599,5182,11996,01.055,551
2022-08-26T06:21:19,42.805,6.029,CST-1368DR,4599,5181,11994,01.056,551
2022-08-26T06:24:21,42.805,6.029,CST-1368DR,4599,5181,11994,01.056,551
2022-08-26T06:27:22,42.805,6.029,CST-1368DR,4599,5183,11998,01.054,551
2022-08-26T06:30:24,42.805,6.029,CST-1368DR,4599,5182,11997,01.055,551
2022-08-26T06:33:25,42.805,6.029,CST-1368DR,4599,5181,11995,01.055,551
2022-08-26T06:36:27,42.805,6.029,CST-1368DR,4599,5180,11993,01.056,551
2022-08-26T06:39:29,42.805,6.029,CST-1368DR,4599,5179,11990,01.057,551
2022-08-26T06:42:30,42.805,6.029,CST-1368DR,4599,5181,11994,01.056,551
2022-08-26T06:45:32,42.805,6.029,CST-1368DR,4599,5178,11986,01.058,551
2022-08-26T06:48:33,42.805,6.029,CST-1368DR,4599,5180,11993,01.056,551
2022-08-26T06:51:35,42.805,6.029,CST-1368DR,4599,5180,11993,01.056,551
2022-08-26T06:54:37,42.805,6.029,CST-1368DR,4599,5180,11993,01.056,551
2022-08-26T06:57:38,42.805,6.029,CST-1368DR,4599,5181,11994,01.056,551
2022-08-26T07:00:40,42.805,6.029,CST-1368DR,4599,5181,11993,01.056,551
2022-08-26T07:03:41,42.805,6.029,CST-1368DR,4599,5180,11992,01.056,551
2022-08-26T07:06:43,42.805,6.029,CST-1368DR,4599,5179,11989,01.057,551
2022-08-26T07:09:44,42.805,6.029,CST-1368DR,4599,5182,11996,01.055,551
2022-08-26T07:12:46,42.805,6.029,CST-1368DR,4599,5180,11993,01.056,551
2022-08-26T07:15:48,42.805,6.029,CST-1368DR,4599,5180,11992,01.056,551
2022-08-26T07:18:49,42.805,6.029,CST-1368DR,4599,5180,11993,01.056,551
2022-08-26T07:21:51,42.805,6.029,CST-1368DR,4599,5179,11990,01.057,551
2022-08-26T07:24:52,42.805,6.029,CST-1368DR,4599,5181,11993,01.056,551
2022-08-26T07:27:54,42.805,6.029,CST-1368DR,4599,5180,11992,01.056,551
2022-08-26T07:30:55,42.805,6.029,CST-1368DR,4599,5181,11993,01.056,551
2022-08-26T07:33:57,42.805,6.029,CST-1368DR,4599,5181,11994,01.056,551
2022-08-26T07:36:59,42.805,6.029,CST-1368DR,4599,5181,11994,01.056,551
2022-08-26T07:40:00,42.805,6.029,CST-1368DR,4599,5178,11986,01.058,551
2022-08-26T07:43:02,42.805,6.029,CST-1368DR,4599,5181,11994,01.056,551
2022-08-26T07:46:03,42.805,6.029,CST-1368DR,4599,5182,11996,01.055,551
2022-08-26T07:49:05,42.805,6.029,CST-1368DR,4599,5179,11989,01.057,551
2022-08-26T07:52:07,42.805,6.029,CST-1368DR,4599,5181,11994,01.056,551
2022-08-26T07:55:08,42.805,6.029,CST-1368DR,4599,5181,11994,01.056,551
2022-08-26T07:58:10,42.805,6.029,CST-1368DR,4599,5180,11991,01.057,551
2022-08-26T08:01:11,42.805,6.029,CST-1368DR,4599,5181,11993,01.056,551
2022-08-26T08:04:13,42.805,6.029,CST-1368DR,4599,5182,11997,01.055,551
2022-08-26T08:07:14,42.805,6.029,CST-1368DR,4599,5182,11997,01.055,551
2022-08-26T08:10:16,42.805,6.029,CST-1368DR,4599,5181,11995,01.055,551
2022-08-26T08:13:18,42.805,6.029,CST-1368DR,4599,5182,11996,01.055,551
2022-08-26T08:16:19,42.805,6.029,CST-1368DR,4599,5181,11994,01.056,551
2022-08-26T08:19:21,42.805,6.029,CST-1368DR,4599,5182,11996,01.055,551
2022-08-26T08:22:22,42.805,6.029,CST-1368DR,4599,5180,11992,01.056,551
2022-08-26T08:25:24,42.805,6.029,CST-1368DR,4599,5180,11991,01.057,551
2022-08-26T08:28:26,42.805,6.029,CST-1368DR,4599,5182,11997,01.055,551
2022-08-26T08:31:27,42.805,6.029,CST-1368DR,4599,5181,11993,01.056,551
2022-08-26T08:34:29,42.805,6.029,CST-1368DR,4599,5181,11995,01.055,551
2022-08-26T08:37:30,42.805,6.029,CST-1368DR,4599,5181,11994,01.056,551
2022-08-26T08:40:32,42.805,6.029,CST-1368DR,4599,5182,11997,01.055,551
2022-08-26T08:43:33,42.805,6.029,CST-1368DR,4599,5181,11994,01.056,551
2022-08-26T08:46:35,42.805,6.029,CST-1368DR,4599,5182,11997,01.055,551
2022-08-26T08:49:37,42.805,6.029,CST-1368DR,4599,5184,12000,01.054,551
2022-08-26T08:52:38,42.805,6.029,CST-1368DR,4599,5181,11994,01.056,551
2022-08-26T08:55:40,42.805,6.029,CST-1368DR,4599,5181,11993,01.056,551
2022-08-26T08:58:41,42.805,6.029,CST-1368DR,4599,5182,11997,01.055,551
2022-08-26T09:01:43,42.805,6.029,CST-1368DR,4599,5183,11999,01.054,551
2022-08-26T09:04:45,42.805,6.029,CST-1368DR,4599,5182,11996,01.055,551
2022-08-26T09:07:46,42.805,6.029,CST-1368DR,4599,5182,11997,01.055,551
2022-08-26T09:10:48,42.805,6.029,CST-1368DR,4599,5182,11996,01.055,551
2022-08-26T09:13:49,42.805,6.029,CST-1368DR,4599,5181,11995,01.055,551
2022-08-26T09:16:51,42.805,6.029,CST-1368DR,4599,5185,12003,01.053,551
2022-08-26T09:19:52,42.805,6.029,CST-1368DR,4599,5181,11995,01.055,551
2022-08-26T09:22:54,42.805,6.029,CST-1368DR,4599,5181,11994,01.056,551
2022-08-26T09:25:56,42.805,6.029,CST-1368DR,4599,5181,11995,01.055,551
2022-08-26T09:28:57,42.805,6.029,CST-1368DR,4599,5180,11993,01.056,551
2022-08-26T09:31:59,42.805,6.029,CST-1368DR,4599,5182,11997,01.055,551
2022-08-26T09:35:00,42.805,6.029,CST-1368DR,4599,5182,11997,01.055,551
2022-08-26T09:38:02,42.805,6.029,CST-1368DR,4599,5182,11997,01.055,551
2022-08-26T09:41:03,42.805,6.029,CST-1368DR,4599,5183,11999,01.054,551
2022-08-26T09:44:05,42.805,6.029,CST-1368DR,4599,5180,11993,01.056,551
2022-08-26T09:47:07,42.805,6.029,CST-1368DR,4599,5182,11997,01.055,551
2022-08-26T09:50:08,42.805,6.029,CST-1368DR,4599,5180,11993,01.056,551
2022-08-26T09:53:10,42.805,6.029,CST-1368DR,4599,5182,11997,01.055,551
2022-08-26T09:56:11,42.805,6.029,CST-1368DR,4599,5184,12001,01.053,551
2022-08-26T09:59:13,42.805,6.029,CST-1368DR,4599,5181,11994,01.056,551
2022-08-26T10:02:14,42.805,6.029,CST-1368DR,4599,5181,11994,01.056,551
2022-08-26T10:05:16,42.805,6.029,CST-1368DR,4599,5182,11996,01.055,551
2022-08-26T10:08:18,42.805,6.029,CST-1368DR,4599,5181,11994,01.056,551
2022-08-26T10:11:19,42.805,6.029,CST-1368DR,4599,5181,11995,01.055,551
2022-08-26T10:14:21,42.805,6.029,CST-1368DR,4599,5182,11996,01.055,551
2022-08-26T10:17:22,42.805,6.029,CST-1368DR,4599,5179,11989,01.057,551
2022-08-26T10:20:24,42.805,6.029,CST-1368DR,4599,5181,11994,01.056,551
2022-08-26T10:23:26,42.805,6.029,CST-1368DR,4599,5181,11993,01.056,551
2022-08-26T10:26:27,42.805,6.029,CST-1368DR,4599,5182,11997,01.055,551
2022-08-26T10:29:29,42.805,6.029,CST-1368DR,4599,5180,11992,01.056,551
2022-08-26T10:32:30,42.805,6.029,CST-1368DR,4599,5181,11994,01.056,551
2022-08-26T10:35:32,42.805,6.029,CST-1368DR,4599,5180,11993,01.056,551
2022-08-26T10:38:33,42.805,6.029,CST-1368DR,4599,5181,11993,01.056,551
2022-08-26T10:41:35,42.805,6.029,CST-1368DR,4599,5181,11993,01.056,551
2022-08-26T10:44:37,42.805,6.029,CST-1368DR,4599,5181,11993,01.056,551
2022-08-26T10:47:38,42.805,6.029,CST-1368DR,4599,5181,11994,01.056,551
2022-08-26T10:50:40,42.805,6.029,CST-1368DR,4599,5181,11995,01.055,550
2022-08-26T10:53:41,42.805,6.029,CST-1368DR,4599,5181,11994,01.056,551
2022-08-26T10:56:43,42.805,6.029,CST-1368DR,4599,5180,11992,01.056,551
2022-08-26T10:59:45,42.805,6.029,CST-1368DR,4599,5181,11994,01.056,551
2022-08-26T11:02:46,42.805,6.029,CST-1368DR,4599,5181,11994,01.056,551
2022-08-26T11:05:48,42.805,6.029,CST-1368DR,4599,5181,11994,01.056,551
2022-08-26T11:08:49,42.805,6.029,CST-1368DR,4599,5180,11993,01.056,551
2022-08-26T11:11:51,42.805,6.029,CST-1368DR,4599,5181,11993,01.056,551
2022-08-26T11:14:52,42.805,6.029,CST-1368DR,4599,5181,11993,01.056,551
2022-08-26T11:17:54,42.805,6.029,CST-1368DR,4599,5181,11994,01.056,551
2022-08-26T11:20:56,42.805,6.029,CST-1368DR,4599,5181,11993,01.056,551
2022-08-26T11:23:57,42.805,6.029,CST-1368DR,4599,5181,11995,01.055,551
2022-08-26T11:26:59,42.805,6.029,CST-1368DR,4599,5181,11994,01.056,551
2022-08-26T11:30:00,42.805,6.029,CST-1368DR,4599,5179,11990,01.057,551
2022-08-26T11:33:02,42.805,6.029,CST-1368DR,4599,5180,11991,01.057,551
2022-08-26T11:36:03,42.805,6.029,CST-1368DR,4599,5181,11995,01.055,551
2022-08-26T11:39:05,42.805,6.029,CST-1368DR,4599,5181,11993,01.056,551
2022-08-26T11:42:07,42.805,6.029,CST-1368DR,4599,5180,11992,01.056,551
2022-08-26T11:45:08,42.805,6.029,CST-1368DR,4599,5184,12000,01.054,551
2022-08-26T11:48:10,42.805,6.029,CST-1368DR,4599,5181,11994,01.056,551
2022-08-26T11:51:11,42.805,6.029,CST-1368DR,4599,5181,11993,01.056,551
2022-08-26T11:54:13,42.805,6.029,CST-1368DR,4599,5177,11986,01.058,551
2022-08-26T11:57:15,42.805,6.029,CST-1368DR,4599,5181,11994,01.056,551
2022-08-26T12:00:16,42.805,6.029,CST-1368DR,4599,5181,11994,01.056,551
2022-08-26T12:03:18,42.805,6.029,CST-1368DR,4599,5181,11994,01.056,551
2022-08-26T12:06:19,42.805,6.029,CST-1368DR,4599,5181,11994,01.056,551
2022-08-26T12:09:21,42.805,6.029,CST-1368DR,4599,5180,11991,01.057,551
2022-08-26T12:12:22,42.805,6.029,CST-1368DR,4599,5180,11991,01.057,551
2022-08-26T12:15:24,42.805,6.029,CST-1368DR,4599,5179,11989,01.057,551
2022-08-26T12:18:26,42.805,6.029,CST-1368DR,4599,5181,11993,01.056,551
2022-08-26T12:21:27,42.805,6.029,CST-1368DR,4599,5180,11993,01.056,551
2022-08-26T12:24:29,42.805,6.029,CST-1368DR,4599,5180,11993,01.056,551
2022-08-26T12:27:30,42.805,6.029,CST-1368DR,4599,5179,11990,01.057,551
2022-08-26T12:30:32,42.805,6.029,CST-1368DR,4599,5180,11992,01.056,551
2022-08-26T12:33:33,42.805,6.029,CST-1368DR,4599,5181,11994,01.056,551
2022-08-26T12:36:35,42.805,6.029,CST-1368DR,4599,5180,11993,01.056,551
2022-08-26T12:39:37,42.805,6.029,CST-1368DR,4599,5179,11989,01.057,551
2022-08-26T12:42:38,42.805,6.029,CST-1368DR,4599,5179,11990,01.057,551
2022-08-26T12:45:40,42.805,6.029,CST-1368DR,4599,5180,11993,01.056,551
2022-08-26T12:48:41,42.805,6.029,CST-1368DR,4599,5181,11994,01.056,551
2022-08-26T12:51:43,42.805,6.029,CST-1368DR,4599,5179,11990,01.057,551
2022-08-26T12:54:45,42.805,6.029,CST-1368DR,4599,5180,11992,01.056,551
2022-08-26T12:57:46,42.805,6.029,CST-1368DR,4599,5179,11990,01.057,551
2022-08-26T13:00:48,42.805,6.029,CST-1368DR,4599,5179,11990,01.057,551
2022-08-26T13:03:49,42.805,6.029,CST-1368DR,4599,5177,11986,01.058,551
2022-08-26T13:06:51,42.805,6.029,CST-1368DR,4599,5176,11982,01.060,551
2022-08-26T13:09:52,42.805,6.029,CST-1368DR,4599,5176,11982,01.060,551
2022-08-26T13:12:54,42.805,6.029,CST-1368DR,4599,5179,11989,01.057,551
2022-08-26T13:15:56,42.805,6.029,CST-1368DR,4599,5178,11988,01.058,551
2022-08-26T13:18:57,42.805,6.029,CST-1368DR,4599,5175,11981,01.060,551
2022-08-26T13:21:59,42.805,6.029,CST-1368DR,4599,5176,11983,01.059,551
2022-08-26T13:25:00,42.805,6.029,CST-1368DR,4599,5179,11989,01.057,551
2022-08-26T13:28:02,42.805,6.029,CST-1368DR,4599,5177,11985,01.059,551
2022-08-26T13:31:03,42.805,6.029,CST-1368DR,4599,5171,11971,01.063,551
2022-08-26T13:34:05,42.805,6.029,CST-1368DR,4599,5176,11982,01.060,551
2022-08-26T13:37:07,42.805,6.029,CST-1368DR,4599,5174,11978,01.061,551
2022-08-26T13:40:08,42.805,6.029,CST-1368DR,4599,5173,11975,01.062,551
2022-08-26T13:43:10,42.805,6.029,CST-1368DR,4599,5175,11981,01.060,551
2022-08-26T13:46:11,42.805,6.029,CST-1368DR,4599,5175,11979,01.061,551
2022-08-26T13:49:13,42.805,6.029,CST-1368DR,4599,5176,11982,01.060,551
2022-08-26T13:52:15,42.805,6.029,CST-1368DR,4599,5176,11983,01.059,551
2022-08-26T13:55:16,42.805,6.029,CST-1368DR,4599,5175,11981,01.060,551
2022-08-26T13:58:18,42.805,6.029,CST-1368DR,4599,5174,11979,01.061,551
2022-08-26T14:01:19,42.805,6.029,CST-1368DR,4599,5175,11981,01.060,551
2022-08-26T14:04:21,42.805,6.029,CST-1368DR,4599,5177,11985,01.059,551
2022-08-26T14:07:22,42.805,6.029,CST-1368DR,4599,5177,11985,01.059,551
2022-08-26T14:10:24,42.805,6.029,CST-1368DR,4599,5177,11986,01.058,551
2022-08-26T14:13:26,42.805,6.029,CST-1368DR,4599,5175,11979,01.061,551
2022-08-26T14:16:27,42.805,6.029,CST-1368DR,4599,5176,11983,01.059,551
2022-08-26T14:19:29,42.805,6.029,CST-1368DR,4599,5177,11985,01.059,551
2022-08-26T14:22:30,42.805,6.029,CST-1368DR,4599,5176,11982,01.060,551
2022-08-26T14:25:32,42.805,6.029,CST-1368DR,4599,5176,11983,01.059,551
2022-08-26T14:28:33,42.805,6.029,CST-1368DR,4599,5177,11985,01.059,551
2022-08-26T14:31:35,42.805,6.029,CST-1368DR,4599,5176,11982,01.060,551
2022-08-26T14:34:37,42.805,6.029,CST-1368DR,4599,5176,11983,01.059,551
2022-08-26T14:37:38,42.805,6.029,CST-1368DR,4599,5177,11985,01.059,551
2022-08-26T14:40:40,42.805,6.029,CST-1368DR,4599,5176,11982,01.060,551
2022-08-26T14:43:41,42.805,6.029,CST-1368DR,4599,5176,11983,01.059,551
2022-08-26T14:46:43,42.805,6.029,CST-1368DR,4599,5180,11991,01.057,551
2022-08-26T14:49:45,42.805,6.029,CST-1368DR,4599,5177,11986,01.058,551
2022-08-26T14:52:46,42.805,6.029,CST-1368DR,4599,5177,11986,01.058,551
2022-08-26T14:55:48,42.805,6.029,CST-1368DR,4599,5178,11988,01.058,551
2022-08-26T14:58:49,42.805,6.029,CST-1368DR,4599,5180,11992,01.056,551
2022-08-26T15:01:51,42.805,6.029,CST-1368DR,4599,5179,11990,01.057,551
2022-08-26T15:04:52,42.805,6.029,CST-1368DR,4599,5179,11989,01.057,550
2022-08-26T15:07:54,42.805,6.029,CST-1368DR,4599,5177,11986,01.058,551
2022-08-26T15:10:56,42.805,6.029,CST-1368DR,4599,5175,11981,01.060,551
2022-08-26T15:13:57,42.805,6.029,CST-1368DR,4599,5179,11989,01.057,551
2022-08-26T15:16:59,42.805,6.029,CST-1368DR,4599,5179,11990,01.057,551
2022-08-26T15:20:00,42.805,6.029,CST-1368DR,4599,5178,11988,01.058,551
2022-08-26T15:23:02,42.805,6.029,CST-1368DR,4599,5178,11988,01.058,551
2022-08-26T15:26:04,42.805,6.029,CST-1368DR,4599,5177,11985,01.059,551
2022-08-26T15:29:05,42.805,6.029,CST-1368DR,4599,5177,11986,01.058,551
2022-08-26T15:32:07,42.805,6.029,CST-1368DR,4599,5177,11985,01.059,551
2022-08-26T15:35:08,42.805,6.029,CST-1368DR,4599,5176,11983,01.059,551
2022-08-26T15:38:10,42.805,6.029,CST-1368DR,4599,5175,11981,01.060,551
2022-08-26T15:41:11,42.805,6.029,CST-1368DR,4599,5176,11983,01.059,551
2022-08-26T15:44:13,42.805,6.029,CST-1368DR,4599,5176,11983,01.059,551
2022-08-26T15:47:15,42.805,6.029,CST-1368DR,4599,5177,11985,01.059,551
2022-08-26T15:50:16,42.805,6.029,CST-1368DR,4599,5182,11997,01.055,551
2022-08-26T15:53:18,42.805,6.029,CST-1368DR,4598,5177,11988,01.058,551
2022-08-26T15:56:19,42.805,6.029,CST-1368DR,4599,5177,11985,01.059,551
2022-08-26T15:59:21,42.805,6.029,CST-1368DR,4599,5177,11986,01.058,551
2022-08-26T16:02:22,42.805,6.029,CST-1368DR,4599,5178,11986,01.058,551
2022-08-26T16:05:24,42.805,6.029,CST-1368DR,4599,5176,11982,01.060,551
2022-08-26T16:08:26,42.805,6.029,CST-1368DR,4599,5178,11986,01.058,551
2022-08-26T16:11:27,42.805,6.029,CST-1368DR,4599,5178,11988,01.058,551
2022-08-26T16:14:29,42.805,6.029,CST-1368DR,4599,5173,11975,01.062,551
2022-08-26T16:17:30,42.805,6.029,CST-1368DR,4599,5176,11982,01.060,551
2022-08-26T16:20:32,42.805,6.029,CST-1368DR,4599,5176,11982,01.060,551
2022-08-26T16:23:34,42.805,6.029,CST-1368DR,4599,5176,11982,01.060,551
2022-08-26T16:26:35,42.805,6.029,CST-1368DR,4598,5176,11986,01.058,551
2022-08-26T16:29:37,42.805,6.029,CST-1368DR,4599,5176,11982,01.060,551
2022-08-26T16:32:38,42.805,6.029,CST-1368DR,4599,5176,11983,01.059,551
2022-08-26T16:35:40,42.805,6.029,CST-1368DR,4599,5177,11986,01.058,551